Voltar ao catálogo

STARLINK-6221

AtivoComunicaçõesVLEO
NORAD 56484·PAYLOAD·🇺🇸 United States

Lançado May 10, 2023 de Vandenberg Space Force Base

Loading…

Próximas Passagens (próximas 24 horas)

TLE

AtualizadoSource: CelesTrak SupGP

Época: Sep 14, 2026, 22:18 UTC

1 56484C 23064AN  26257.92965278 -.00050316  00000+0 -42172-2 0  2573
2 56484  70.0020   7.2375 0003221 271.4966 229.7243 14.98350261    14

Acompanhe STARLINK-6221 em tempo real com AllMySat

Download on the App Store